{"data":{"norad_id":58779,"epoch":"2026-09-20T11:51:08.287488Z","epoch_age_seconds":153024,"freshness":"FRESH","line1":"1 58779U 24011Q   26263.49384592  .00001140  00000+0  44880-4 0  9990","line2":"2 58779  53.1595 187.5465 0001812  74.2388 285.8814 15.34394682150115","mean_motion":15.34394682,"eccentricity":0.0001812,"inclination_deg":53.1595,"raan_deg":187.5465,"arg_perigee_deg":74.2388,"mean_anomaly_deg":285.8814,"bstar":4.488e-5,"rev_number":15011,"period_min":93.8480833447,"perigee_km":461.47948335385,"apogee_km":463.9586095851,"semimajor_km":6840.8560464695,"source":"CELESTRAK","updated_at":"2026-09-21T09:00:33.977367Z"}}